TimeEST,TemperatureF,Dew PointF,Humidity,Sea Level PressureIn,VisibilityMPH,Wind Direction,Wind SpeedMPH,Gust SpeedMPH,PrecipitationIn,Events,Conditions,WindDirDegrees,DateUTC
12:16 AM,29.8,17.1,59,30.37,10.0,WSW,12.7,19.6,N/A,,Overcast,250,2013-11-13 05:16:00
12:36 AM,29.5,13.1,51,30.36,10.0,WSW,9.2,-,N/A,,Overcast,240,2013-11-13 05:36:00
12:56 AM,29.1,10.4,46,30.36,10.0,WSW,9.2,-,N/A,,Overcast,250,2013-11-13 05:56:00
1:16 AM,28.9,12.2,50,30.36,10.0,West,5.8,-,N/A,,Overcast,260,2013-11-13 06:16:00
1:35 AM,28.4,13.5,54,30.34,10.0,WSW,5.8,-,N/A,,Overcast,240,2013-11-13 06:35:00
1:56 AM,28.8,14.7,56,30.34,10.0,West,6.9,-,N/A,,Overcast,260,2013-11-13 06:56:00
2:16 AM,28.9,13.5,52,30.34,10.0,WSW,6.9,-,N/A,,Overcast,250,2013-11-13 07:16:00
2:35 AM,29.3,13.8,53,30.34,10.0,Calm,Calm,-,N/A,,Overcast,0,2013-11-13 07:35:00
2:56 AM,29.5,14.4,53,30.33,10.0,Calm,Calm,-,N/A,,Overcast,0,2013-11-13 07:56:00
3:15 AM,28.9,15.8,58,30.32,10.0,Calm,Calm,-,N/A,,Overcast,0,2013-11-13 08:15:00
3:36 AM,30.0,18.1,61,30.31,10.0,SW,3.5,-,N/A,,Overcast,220,2013-11-13 08:36:00
3:56 AM,30.0,17.6,60,30.30,10.0,WSW,4.6,-,N/A,,Overcast,240,2013-11-13 08:56:00
4:15 AM,30.6,19.0,62,30.29,10.0,SW,4.6,-,N/A,,Overcast,230,2013-11-13 09:15:00
4:36 AM,31.5,18.7,59,30.29,10.0,WSW,6.9,-,N/A,,Overcast,250,2013-11-13 09:36:00
4:56 AM,31.1,17.4,57,30.28,10.0,WSW,6.9,17.3,N/A,,Overcast,240,2013-11-13 09:56:00
5:15 AM,30.4,16.9,57,30.29,10.0,WSW,6.9,-,N/A,,Mostly Cloudy,240,2013-11-13 10:15:00
5:36 AM,29.3,16.7,59,30.28,10.0,WSW,4.6,-,N/A,,Scattered Clouds,240,2013-11-13 10:36:00
5:56 AM,28.4,16.7,62,30.28,10.0,Calm,Calm,-,N/A,,Clear,0,2013-11-13 10:56:00
6:16 AM,27.1,16.5,64,30.26,10.0,Calm,Calm,-,N/A,,Clear,0,2013-11-13 11:16:00
6:36 AM,27.5,16.7,64,30.26,10.0,Calm,Calm,-,N/A,,Clear,0,2013-11-13 11:36:00
6:56 AM,25.2,16.9,71,30.24,10.0,Calm,Calm,-,N/A,,Clear,0,2013-11-13 11:56:00
7:16 AM,24.8,18.1,76,30.24,10.0,Calm,Calm,-,N/A,,Mostly Cloudy,0,2013-11-13 12:16:00
7:36 AM,25.5,20.5,81,30.23,10.0,SW,3.5,-,N/A,,Scattered Clouds,220,2013-11-13 12:36:00
7:55 AM,28.9,24.4,83,30.22,10.0,SSW,8.1,-,N/A,,Mostly Cloudy,200,2013-11-13 12:55:00
8:16 AM,30.6,25.7,82,30.21,10.0,SSW,6.9,-,N/A,,Mostly Cloudy,210,2013-11-13 13:16:00
8:36 AM,32.0,26.6,80,30.20,10.0,SW,6.9,-,N/A,,Mostly Cloudy,220,2013-11-13 13:36:00
8:55 AM,32.4,27.0,80,30.20,10.0,SW,8.1,17.3,N/A,,Overcast,230,2013-11-13 13:55:00
9:16 AM,32.7,27.5,81,30.20,10.0,SW,6.9,-,N/A,,Overcast,220,2013-11-13 14:16:00
9:36 AM,33.1,28.2,82,30.19,10.0,SW,6.9,-,N/A,,Overcast,220,2013-11-13 14:36:00
9:55 AM,32.9,28.2,83,30.18,10.0,SSW,10.4,16.1,N/A,,Mostly Cloudy,200,2013-11-13 14:55:00
10:16 AM,34.5,29.1,81,30.16,10.0,SW,8.1,16.1,N/A,,Overcast,220,2013-11-13 15:16:00
10:36 AM,33.8,29.3,84,30.16,10.0,SSW,12.7,19.6,N/A,,Overcast,210,2013-11-13 15:36:00
10:56 AM,34.3,29.5,82,30.15,10.0,SW,9.2,18.4,N/A,,Overcast,220,2013-11-13 15:56:00
11:16 AM,34.3,29.7,83,30.14,10.0,SSW,11.5,19.6,N/A,,Mostly Cloudy,200,2013-11-13 16:16:00
11:36 AM,36.0,30.4,80,30.13,10.0,SSW,13.8,23.0,N/A,,Mostly Cloudy,210,2013-11-13 16:36:00
11:56 AM,37.2,30.7,77,30.11,10.0,SW,10.4,29.9,N/A,,Overcast,220,2013-11-13 16:56:00
12:16 PM,35.8,30.0,80,30.09,10.0,SW,13.8,19.6,N/A,,Overcast,220,2013-11-13 17:16:00
12:36 PM,36.5,29.8,77,30.08,10.0,SW,13.8,23.0,N/A,,Overcast,220,2013-11-13 17:36:00
12:56 PM,37.6,30.0,74,30.06,10.0,SW,12.7,21.9,N/A,,Scattered Clouds,220,2013-11-13 17:56:00
1:16 PM,37.4,29.3,73,30.04,10.0,SSW,11.5,23.0,N/A,,Clear,210,2013-11-13 18:16:00
1:36 PM,37.0,28.4,71,30.03,10.0,SSW,12.7,23.0,N/A,,Clear,210,2013-11-13 18:36:00
1:56 PM,38.3,28.0,67,30.00,10.0,SSW,19.6,26.5,N/A,,Clear,200,2013-11-13 18:56:00
2:15 PM,39.2,27.5,63,30.00,10.0,SW,12.7,21.9,N/A,,Clear,220,2013-11-13 19:15:00
2:36 PM,38.7,25.5,59,29.99,10.0,SW,13.8,27.6,N/A,,Clear,220,2013-11-13 19:36:00
2:56 PM,38.8,25.3,58,29.97,10.0,SW,13.8,25.3,N/A,,Clear,220,2013-11-13 19:56:00
3:15 PM,38.3,24.4,57,29.95,10.0,SSW,16.1,26.5,N/A,,Clear,210,2013-11-13 20:15:00
3:36 PM,38.8,24.8,57,29.93,10.0,SSW,15.0,27.6,N/A,,Clear,210,2013-11-13 20:36:00
3:56 PM,38.5,25.0,58,29.92,10.0,SW,15.0,23.0,N/A,,Clear,220,2013-11-13 20:56:00
4:16 PM,38.7,25.3,59,29.90,10.0,SSW,13.8,24.2,N/A,,Clear,210,2013-11-13 21:16:00
4:36 PM,38.8,25.2,58,29.88,10.0,SSW,18.4,27.6,N/A,,Clear,210,2013-11-13 21:36:00
4:56 PM,38.7,25.5,59,29.87,10.0,SSW,16.1,23.0,N/A,,Clear,210,2013-11-13 21:56:00
5:16 PM,38.7,25.7,60,29.86,10.0,SSW,12.7,21.9,N/A,,Clear,210,2013-11-13 22:16:00
5:36 PM,38.8,26.1,60,29.85,10.0,SSW,15.0,19.6,N/A,,Clear,210,2013-11-13 22:36:00
5:55 PM,39.0,25.7,59,29.85,10.0,SSW,11.5,21.9,N/A,,Clear,210,2013-11-13 22:55:00
6:16 PM,39.2,25.7,58,29.86,10.0,SW,12.7,17.3,N/A,,Clear,220,2013-11-13 23:16:00
6:36 PM,39.4,25.3,57,29.86,10.0,SW,11.5,21.9,N/A,,Clear,230,2013-11-13 23:36:00
6:55 PM,39.2,25.5,58,29.85,10.0,SW,15.0,26.5,N/A,,Clear,230,2013-11-13 23:55:00
7:16 PM,39.4,25.5,58,29.84,10.0,SW,12.7,21.9,N/A,,Clear,220,2013-11-14 00:16:00
7:36 PM,39.2,25.9,59,29.84,10.0,SW,10.4,18.4,N/A,,Clear,220,2013-11-14 00:36:00
7:55 PM,38.8,26.6,61,29.83,10.0,SW,8.1,17.3,N/A,,Clear,220,2013-11-14 00:55:00
8:16 PM,38.8,27.5,64,29.83,10.0,SW,8.1,-,N/A,,Clear,220,2013-11-14 01:16:00
8:36 PM,39.0,27.9,64,29.83,10.0,SW,8.1,-,N/A,,Clear,220,2013-11-14 01:36:00
8:56 PM,39.2,28.2,65,29.83,10.0,SSW,6.9,-,N/A,,Clear,210,2013-11-14 01:56:00
9:16 PM,40.1,28.2,63,29.84,10.0,SW,9.2,16.1,N/A,,Clear,220,2013-11-14 02:16:00
9:36 PM,40.3,29.1,64,29.83,10.0,SW,10.4,16.1,N/A,,Clear,230,2013-11-14 02:36:00
9:56 PM,40.5,30.2,67,29.83,10.0,SW,6.9,16.1,N/A,,Clear,220,2013-11-14 02:56:00
10:16 PM,40.5,31.6,71,29.83,10.0,SW,8.1,18.4,N/A,,Clear,230,2013-11-14 03:16:00
10:36 PM,42.4,32.2,67,29.82,10.0,WSW,10.4,25.3,N/A,,Clear,250,2013-11-14 03:36:00
10:56 PM,43.0,32.0,65,29.82,10.0,WSW,15.0,28.8,N/A,,Clear,240,2013-11-14 03:56:00
11:16 PM,42.8,32.2,66,29.82,10.0,WSW,12.7,24.2,N/A,,Clear,240,2013-11-14 04:16:00
11:35 PM,43.0,32.9,68,29.81,10.0,WSW,13.8,29.9,N/A,,Clear,250,2013-11-14 04:35:00
11:56 PM,43.2,32.2,65,29.81,10.0,WSW,13.8,25.3,N/A,,Clear,250,2013-11-14 04:56:00